Weather History for Pompano Beach, FL

Change the Weather History Date:

Tuesday, October 16, 2012

  Actual Average Record
Temperature  
Mean Temperature 76 °F -  
Max Temperature 84 °F 87 °F 94 °F (1976)
Min Temperature 71 °F 70 °F 55 °F (1955)
Cooling Degree Days 12    
Growing Degree Days 26 (Base 50)    
Moisture  
Dew Point 71 °F    
Average Humidity 80    
Maximum Humidity 100    
Minimum Humidity 65    
Precipitation  
Precipitation 0.00 in - - ()
Sea Level Pressure  
Sea Level Pressure 29.82 in    
Wind  
Wind Speed 6 mph (NNE)    
Max Wind Speed 14 mph    
Max Gust Speed 20 mph    
Visibility 10 miles    
Events      
Averages and records for this station are not official NWS values.
T = Trace of Precipitation, MM = Missing Value Source: NWS Daily Summary

Daily Weather History Graph

Daily Weather History Graph

Search for Another Location

Airport:

Trip Planner

Search our weather history database for the weather conditions in past years. The results will help you decide how hot, cold, wet, or windy it might be!

Date:

Astronomy

Oct. 16, 2012 Rise Set
Actual Time 7:20 AM EDT 6:51 PM EDT
Civil Twilight 6:56 AM EDT 7:14 PM EDT
Nautical Twilight 6:30 AM EDT 7:41 PM EDT
Astronomical Twilight 6:03 AM EDT 8:08 PM EDT
Moon 8:29 AM EDT (10/16) 7:48 PM EDT (10/16)
Length of Visible Light 12h 17m
Length of Day
11h 30m
New Moon, 2% of the Moon is Illuminated
Oct 16
New Moon
Oct 21
First Quarter
Oct 29
Full
Nov 6
Last Quarter
Nov 13
New

Hourly Weather History & Observations

Time (EDT) Temp. Heat Index Dew Point Humidity Pressure Visibility Wind Dir Wind Speed Gust Speed Precip Events Conditions
12:53 AM 73.9 °F - 72.0 °F 93% 29.83 in 10.0 mi Calm Calm - N/A   Clear
1:53 AM 73.0 °F - 72.0 °F 96% 29.83 in 10.0 mi NNW 4.6 mph - N/A   Clear
2:53 AM 73.0 °F - 72.0 °F 96% 29.82 in 10.0 mi NNW 5.8 mph - N/A   Clear
3:53 AM 72.0 °F - 72.0 °F 100% 29.81 in 10.0 mi NNW 5.8 mph - N/A   Clear
4:53 AM 71.1 °F - 71.1 °F 100% 29.81 in 10.0 mi NNW 4.6 mph - N/A   Clear
6:53 AM 72.0 °F - 72.0 °F 100% 29.82 in 10.0 mi NW 5.8 mph - N/A   Clear
8:53 AM 75.9 °F - 73.0 °F 91% 29.84 in 10.0 mi NNW 10.4 mph - N/A   Clear
9:53 AM 79.0 °F - 73.0 °F 82% 29.86 in 10.0 mi NNW 8.1 mph - N/A   Clear
10:53 AM 81.0 °F 85.8 °F 73.0 °F 77% 29.86 in 10.0 mi North 8.1 mph - N/A   Scattered Clouds
11:53 AM 82.0 °F 86.3 °F 71.1 °F 69% 29.85 in 10.0 mi NNE 6.9 mph 17.3 mph N/A   Mostly Cloudy
12:53 PM 82.9 °F 87.5 °F 71.1 °F 67% 29.83 in 10.0 mi ENE 10.4 mph - N/A   Scattered Clouds
1:53 PM 82.9 °F 87.0 °F 70.0 °F 65% 29.82 in 10.0 mi ENE 13.8 mph - N/A   Clear
2:53 PM 82.0 °F 86.3 °F 71.1 °F 69% 29.79 in 10.0 mi NE 13.8 mph - N/A   Clear
3:53 PM 82.0 °F 85.9 °F 70.0 °F 67% 29.79 in 10.0 mi ENE 13.8 mph 19.6 mph N/A   Clear
4:53 PM 81.0 °F 84.4 °F 70.0 °F 69% 29.78 in 10.0 mi ENE 11.5 mph - N/A   Clear
5:53 PM 80.1 °F 83.2 °F 70.0 °F 71% 29.79 in 10.0 mi ENE 11.5 mph - N/A   Clear
6:53 PM 78.1 °F - 68.0 °F 71% 29.80 in 10.0 mi NE 6.9 mph - N/A   Partly Cloudy
7:53 PM 78.1 °F - 69.1 °F 74% 29.82 in 10.0 mi ENE 6.9 mph - N/A   Mostly Cloudy
8:53 PM 78.1 °F - 69.1 °F 74% 29.83 in 10.0 mi NE 6.9 mph - N/A   Scattered Clouds
9:53 PM 77.0 °F - 69.1 °F 76% 29.83 in 10.0 mi NE 5.8 mph - N/A   Clear
10:53 PM 75.9 °F - 69.1 °F 79% 29.84 in 10.0 mi ENE 4.6 mph - N/A   Clear
11:53 PM 77.0 °F - 69.1 °F 76% 29.84 in 10.0 mi Calm Calm - N/A   Partly Cloudy